Theta_e
322 331 335 337 336 335 335 336 335 335 336 340 344 345 344 346 345 343 341 341 341 341 340 339 339 340 340 342 345 342 342 342 342 343 344 344 345 346 347 348 345 345 345 346
325 330 331 332 333 334 334 336 336 335 336 340 341 341 341 344 345 345 344 342 342 342 343 340 338 339 339 339 339 345 344 343 342 343 344 344 345 346 348 347 346 346 346 345
324 327 324 329 331 333 334 336 335 333 334 337 337 341 340 345 345 344 343 344 343 343 343 343 341 341 342 342 340 340 342 344 342 342 344 345 346 346 349 348 348 348 347 345
321 321 323 326 329 332 336 331 331 332 333 335 336 342 342 341 345 348 344 342 344 345 345 346 347 345 345 343 340 340 342 343 342 344 344 345 345 345 346 347 347 347 346 346
321 321 322 325 327 329 332 329 329 331 335 337 338 340 340 340 343 345 347 345 344 346 346 346 346 345 346 343 341 340 341 342 345 345 345 345 346 345 346 348 348 347 346 344
321 318 323 326 326 328 327 329 333 333 336 341 338 339 340 340 342 343 344 345 346 345 345 343 345 344 345 344 342 341 341 342 346 346 346 345 347 345 346 349 347 348 346 340
319 320 320 322 323 323 326 328 333 338 338 340 335 339 340 339 338 338 339 343 344 344 345 343 343 341 343 344 342 341 341 341 344 347 347 343 346 347 350 349 349 347 341 328
321 321 320 321 322 325 325 328 334 338 339 339 334 340 338 337 335 334 337 340 344 344 344 344 342 340 341 345 344 342 342 341 343 349 349 343 346 350 350 350 347 343 327 332
321 322 320 320 322 324 329 330 330 331 332 335 336 337 336 336 338 337 336 338 344 344 343 344 343 341 342 342 346 344 343 342 344 351 349 344 346 351 350 348 346 331 336 338
322 323 320 321 323 324 329 330 333 335 337 336 337 339 337 342 340 339 339 338 340 344 344 344 342 341 341 342 345 345 344 343 345 353 350 347 351 351 350 347 335 340 338 342
319 322 323 321 324 326 329 330 331 334 336 335 335 335 339 341 341 339 338 340 340 342 344 342 342 341 342 342 346 347 347 345 346 353 352 353 352 351 347 346 337 339 342 341
320 321 323 323 321 320 324 329 332 329 334 335 336 334 335 336 339 337 338 341 342 342 343 343 342 340 340 342 345 349 350 348 348 354 351 352 347 349 347 333 340 342 343 343
319 322 324 324 322 321 323 325 327 328 331 337 333 332 336 337 340 339 339 341 346 342 343 340 342 342 344 353 352 351 351 349 353 349 348 347 346 348 337 338 341 342 343 343
318 319 324 325 325 326 330 330 328 331 335 334 335 334 336 337 339 338 340 342 346 343 344 346 350 352 350 352 354 353 353 351 348 346 346 346 347 344 334 340 341 341 343 340
322 330 322 322 320 321 325 328 330 332 334 335 334 336 337 338 337 336 337 343 347 348 347 350 353 355 350 353 356 354 348 346 337 337 342 345 345 336 337 339 340 342 341 340
328 335 330 334 327 321 325 328 331 331 332 332 334 335 335 334 334 337 340 342 346 350 349 351 353 354 352 354 356 349 340 341 337 335 335 343 336 339 339 340 341 342 341 340
334 336 337 334 332 327 328 328 330 330 331 330 331 331 336 337 340 339 341 343 345 349 348 345 343 355 354 355 351 347 344 337 335 334 338 335 332 340 340 341 343 340 340 337
336 336 336 334 335 336 329 328 326 326 327 330 331 334 336 337 336 338 341 343 345 346 345 344 345 355 352 354 353 348 348 344 342 337 336 335 335 340 343 339 341 340 338 331
331 333 337 337 336 334 334 334 333 334 332 335 336 336 339 338 336 338 340 344 344 344 343 344 346 348 352 353 349 349 344 343 338 335 335 333 335 343 339 340 339 339 332 324
331 329 335 333 335 333 332 337 337 338 336 336 342 342 343 337 340 341 346 341 341 341 341 342 343 348 352 353 351 339 338 344 339 340 336 336 339 343 341 338 340 332 325 320
336 336 338 337 337 336 331 336 337 337 338 341 343 343 338 340 341 341 341 343 344 343 341 341 342 344 349 348 346 338 337 337 342 344 342 340 342 343 340 339 332 326 320 319
338 338 339 336 338 338 335 339 342 339 340 342 344 342 340 342 343 347 349 349 347 344 342 341 342 346 343 337 337 335 334 341 341 342 344 342 342 339 337 332 326 319 320 317
337 338 340 340 339 335 335 336 336 337 339 342 343 342 342 350 352 351 351 353 350 345 342 341 343 346 344 343 341 334 339 340 340 343 341 340 338 335 332 321 317 318 316 311
333 331 338 338 339 338 335 334 336 336 338 339 343 342 340 338 340 350 353 350 351 350 345 343 344 345 345 343 341 333 342 342 338 342 341 338 335 330 318 317 316 313 310 309
333 333 337 337 335 335 334 335 334 334 335 336 341 340 339 338 338 340 349 353 353 352 350 349 348 347 348 345 339 340 342 343 342 342 338 335 326 318 316 314 313 311 310 309
331 336 337 335 336 336 334 334 333 335 333 336 338 339 341 336 341 344 345 348 350 350 349 349 349 349 347 345 344 343 344 343 342 338 335 329 318 317 315 314 313 311 309 312
Wind_Speed
2 7 11 11 4 4 6 2 4 6 0 5 13 17 7 16 19 20 22 22 22 22 19 24 26 25 25 25 30 29 21 5 14 21 20 18 16 11 10 8 5 5 7 8
3 11 5 5 6 6 4 2 3 4 8 3 4 13 4 13 19 23 24 25 26 23 20 22 23 22 25 24 26 32 28 18 10 19 22 19 14 11 11 7 6 8 11 8
7 1 7 6 7 8 4 7 4 4 6 6 4 5 2 2 12 17 21 23 24 27 26 24 26 26 23 24 22 22 25 23 15 13 19 20 15 11 9 8 8 10 9 7
5 3 6 8 8 8 12 3 4 4 4 4 3 5 6 2 7 11 21 27 25 28 25 22 22 27 25 21 20 18 19 21 15 13 16 18 15 11 9 7 4 5 5 6
5 6 9 7 5 7 6 2 4 3 3 3 4 4 3 3 9 8 20 26 28 26 26 26 25 20 21 21 19 20 21 18 13 13 15 17 15 10 9 8 6 5 5 5
3 2 3 8 6 9 5 3 2 2 1 6 2 3 4 4 6 7 4 23 26 26 27 24 24 20 19 22 22 21 22 20 14 14 13 16 14 10 9 6 6 4 4 2
2 7 3 3 5 3 5 6 6 7 5 6 2 4 10 8 10 11 14 9 23 24 25 24 23 23 25 23 25 23 24 23 16 14 14 17 15 11 7 6 6 4 3 2
3 4 9 8 11 6 9 10 7 9 8 5 2 4 5 6 7 10 11 11 10 20 22 24 25 22 24 26 27 26 27 26 21 16 15 18 14 11 8 7 7 5 6 4
4 3 2 7 5 11 6 7 2 3 2 3 2 5 12 9 13 10 13 11 11 18 24 24 26 21 23 27 27 27 27 27 23 15 16 19 15 13 10 11 8 8 7 3
5 3 1 1 5 4 5 10 5 2 5 7 4 4 9 9 14 9 11 15 13 14 17 21 25 21 20 22 24 26 27 28 25 18 18 19 16 14 12 11 11 10 7 2
7 4 2 2 7 10 4 4 1 2 2 7 9 7 7 13 14 10 9 9 11 11 13 18 22 23 16 16 21 23 25 27 25 18 18 18 17 16 16 14 14 10 6 2
7 2 7 11 1 2 1 5 8 5 5 1 4 10 4 12 12 8 12 10 4 9 14 18 24 27 20 17 20 19 19 24 22 18 18 17 16 18 17 18 15 9 7 4
9 4 4 3 4 2 6 5 5 1 1 7 9 9 3 10 14 6 12 12 7 8 12 15 21 26 20 15 17 19 21 21 16 10 14 17 19 19 19 18 14 10 7 6
8 3 4 6 2 1 5 7 8 9 4 3 8 14 11 11 13 13 12 11 7 8 14 15 14 16 18 20 22 23 23 19 14 14 12 17 18 18 21 18 14 10 9 9
4 2 3 6 8 6 8 3 8 12 4 6 4 7 12 9 9 15 14 10 10 10 13 14 15 18 20 23 23 24 25 15 4 19 20 14 14 17 19 16 14 10 10 9
1 2 2 2 4 6 7 7 8 12 6 10 10 11 10 15 13 15 10 12 14 13 12 14 17 19 22 24 27 27 21 9 14 6 20 25 21 19 19 19 15 11 10 8
2 3 2 3 3 2 6 13 11 6 6 7 7 12 7 11 10 13 7 11 9 9 15 16 16 18 23 28 31 27 13 10 21 18 22 29 27 22 23 18 14 11 8 6
1 1 2 4 2 6 3 3 4 8 10 10 12 13 13 13 14 14 4 8 10 9 13 19 14 17 20 21 20 19 0 6 11 26 25 29 25 22 21 18 13 11 8 5
1 1 3 5 7 5 8 4 5 7 7 10 13 14 17 13 10 18 8 7 11 10 8 12 14 16 16 19 25 14 7 11 17 25 28 29 26 24 18 15 13 9 7 5
3 0 3 1 7 13 10 3 4 6 6 10 15 13 11 6 7 6 7 8 8 6 7 11 13 15 17 24 19 17 9 12 17 24 27 26 25 21 18 14 11 9 8 5
2 2 6 7 6 6 2 4 3 6 5 21 11 13 9 9 6 5 6 9 8 9 13 15 14 16 19 23 19 16 9 17 16 20 24 20 23 20 13 12 9 8 8 7
3 3 3 2 4 9 3 4 4 9 15 17 10 10 9 6 5 2 3 7 11 16 20 18 21 25 29 19 7 12 10 14 15 21 23 23 18 16 13 10 10 10 9 6
4 3 1 5 4 4 5 10 14 11 16 10 7 9 8 5 7 3 4 8 12 16 19 20 24 30 24 16 11 9 18 17 22 24 25 18 18 15 12 10 11 11 10 10
5 5 3 3 0 3 13 11 7 8 10 13 10 8 6 5 6 1 2 9 12 16 19 23 26 30 25 19 15 14 19 22 25 27 22 19 17 16 14 12 10 9 9 13
1 7 4 6 14 3 5 10 12 12 12 11 7 7 5 6 4 6 5 5 10 14 17 21 25 29 22 19 18 20 20 21 24 22 19 18 16 13 13 12 9 9 9 11
8 5 4 3 3 2 9 7 13 7 15 14 7 4 4 6 6 12 9 10 11 14 13 14 17 20 21 22 21 19 18 21 24 24 21 17 17 16 13 10 10 10 12 10
Wind_Direction
39 204 213 221 194 135 137 144 319 311 313 237 245 268 246 199 200 201 199 205 214 221 225 232 238 239 241 238 224 230 227 243 227 223 227 233 244 261 276 286 263 246 262 278
160 223 206 189 179 161 173 250 287 286 313 264 336 286 293 203 211 207 204 209 215 223 224 230 234 237 242 240 238 232 235 236 244 229 228 237 252 260 277 270 260 259 259 275
207 159 167 181 186 193 204 255 281 287 311 269 315 288 281 193 217 214 215 221 219 218 226 227 232 240 244 242 239 236 232 228 241 237 232 233 242 258 264 262 276 246 242 264
215 175 187 181 198 214 246 189 260 286 317 304 347 295 304 295 244 216 216 217 220 216 223 224 227 235 233 235 226 214 214 221 230 232 224 224 233 253 250 246 265 239 232 253
188 196 197 207 212 198 248 158 291 300 282 245 194 260 286 328 307 250 214 218 216 216 214 220 224 227 225 226 220 216 215 216 218 217 220 224 230 240 251 244 239 215 241 256
233 241 222 234 193 194 135 156 88 103 171 238 113 271 252 299 278 295 218 219 213 214 215 221 224 229 221 222 221 217 213 213 219 224 230 220 222 236 251 223 206 202 222 267
238 228 230 196 188 160 186 191 217 221 215 244 114 226 269 266 267 267 286 250 217 211 214 214 218 221 221 216 217 219 214 219 222 233 228 206 213 228 235 202 207 199 205 177
215 211 194 181 218 202 196 222 227 227 227 243 142 232 260 269 279 285 271 269 225 214 215 213 218 225 216 215 216 216 216 218 223 228 223 206 213 220 218 191 182 186 169 157
178 254 207 212 168 199 162 206 271 189 103 263 246 250 278 270 273 255 255 238 226 220 217 211 213 225 219 214 214 216 216 220 223 229 218 208 216 217 206 183 181 166 162 149
190 264 201 107 169 71 235 141 174 228 201 238 206 254 256 280 284 295 256 247 236 225 214 205 208 218 212 209 214 216 220 217 219 224 215 207 208 204 191 188 184 176 171 183
165 233 161 209 202 188 162 199 87 176 254 251 257 251 235 249 267 290 279 267 265 233 203 198 203 206 198 202 210 210 214 211 210 222 210 204 204 197 192 190 181 176 183 228
187 198 235 249 143 3 297 239 194 228 205 229 287 264 247 254 274 277 280 288 268 223 203 208 210 211 214 224 208 208 209 208 207 215 212 204 199 196 193 183 183 188 208 252
174 203 224 224 170 131 233 207 215 161 189 207 251 270 222 265 274 259 262 272 267 208 198 207 209 216 215 193 186 186 189 187 184 220 228 214 199 192 191 187 193 202 229 272
163 149 235 261 237 207 194 198 199 215 193 208 239 269 266 263 273 285 257 252 260 215 194 196 185 174 180 180 180 176 166 172 173 185 225 231 209 190 188 193 202 216 246 280
209 231 217 272 252 239 249 210 190 229 197 227 304 227 262 268 282 286 276 230 220 207 182 178 163 163 177 178 170 155 119 114 7 304 232 242 201 194 196 205 213 223 255 268
275 197 216 277 346 241 234 203 201 223 229 251 266 276 274 280 279 274 243 211 213 200 171 164 169 166 182 169 158 136 116 86 287 327 196 217 172 200 208 215 220 230 252 254
297 205 216 268 347 266 237 217 204 198 218 242 240 273 292 282 282 297 257 226 212 177 176 174 179 171 175 167 158 155 155 345 247 230 165 186 183 201 208 213 218 239 239 256
211 223 257 258 215 238 253 324 254 226 248 230 259 261 269 276 301 298 282 212 202 171 183 194 180 168 174 174 178 166 140 236 213 212 202 198 198 204 205 222 221 242 236 251
244 184 240 244 231 306 266 201 183 205 261 233 240 252 266 289 293 275 235 202 185 188 166 171 175 171 161 167 168 157 50 264 210 207 199 193 200 201 219 222 231 231 236 248
115 161 237 249 257 252 264 138 131 162 261 220 220 246 265 230 246 257 186 183 192 192 197 173 173 165 154 167 160 129 187 197 202 196 192 196 195 200 210 232 230 221 220 212
196 207 239 235 256 276 8 75 186 219 315 335 292 268 235 216 274 298 169 182 178 171 177 179 175 166 158 150 157 172 199 233 202 199 200 200 200 205 222 224 212 221 214 188
217 221 217 187 232 257 80 112 252 325 314 321 319 333 310 264 271 207 154 158 150 159 167 174 165 158 153 159 202 244 217 208 195 192 191 193 204 220 204 204 213 201 192 190
227 222 284 236 248 70 347 302 297 296 306 306 322 357 2 31 358 7 124 140 138 154 162 165 169 165 177 191 196 193 174 191 182 187 187 197 200 187 192 197 193 186 185 175
216 186 229 292 282 302 323 327 327 312 306 313 280 320 325 350 18 10 114 137 149 159 171 168 171 176 178 185 177 187 181 189 187 187 189 187 180 182 180 173 178 184 188 172
5 168 201 257 282 321 89 44 22 11 346 321 291 298 315 293 319 206 145 143 159 160 174 176 180 184 176 175 178 178 181 182 184 190 183 178 177 179 173 169 168 170 172 166
194 202 201 292 336 301 318 321 351 22 14 359 314 7 60 67 121 182 182 182 163 146 146 169 177 179 164 167 161 162 169 179 183 178 178 184 184 173 164 165 166 158 161 165